| time (UTC) | temp F | wind direction | speed MPH | gust MPH | rain 1hr in | rain 24hr in | rain mn in | humidity % | barometer mb |
| 20260905141022 | 69 | 343 | 1.0 | 3.0 | 0.00 | 0.00 | 0.00 | 79 | 1010.3 |
| 20260905140044 | 68 | 91 | 0.0 | 1.0 | 0.00 | 0.00 | 0.00 | 80 | 1010.4 |
| 20260905135042 | 69 | 136 | 0.0 | 2.0 | 0.00 | 0.00 | 0.00 | 80 | 1010.3 |
| 20260905134022 | 68 | 151 | 0.0 | 2.0 | 0.00 | 0.00 | 0.00 | 81 | 1010.2 |
| 20260905133023 | 68 | 128 | 0.0 | 1.0 | 0.00 | 0.00 | 0.00 | 81 | 1010.1 |
| 20260905132019 | 67 | 354 | 1.0 | 3.0 | 0.00 | 0.00 | 0.00 | 82 | 1010.0 |
| 20260905131036 | 67 | 141 | 0.0 | 1.0 | 0.00 | 0.00 | 0.00 | 84 | 1010.0 |
| 20260905130022 | 66 | 324 | 0.0 | 1.0 | 0.00 | 0.00 | 0.00 | 84 | 1009.8 |
| 20260905125023 | 66 | 116 | 0.0 | 1.0 | 0.00 | 0.00 | 0.00 | 87 | 1009.8 |
| 20260905124103 | 65 | 143 | 1.0 | 2.0 | 0.00 | 0.00 | 0.00 | 89 | 1009.5 |
| 20260905123023 | 63 | 152 | 1.0 | 2.0 | 0.00 | 0.00 | 0.00 | 94 | 1009.4 |
| 20260905122023 | 62 | 101 | 0.0 | 1.0 | 0.00 | 0.00 | 0.00 | 97 | 1009.5 |
| 20260905121023 | 61 | 154 | 0.0 | 1.0 | 0.00 | 0.00 | 0.00 | 97 | 1009.5 |
| 20260905120023 | 60 | 126 | 0.0 | 1.0 | 0.00 | 0.00 | 0.00 | 98 | 1009.4 |
| 20260905115044 | 59 | 150 | 0.0 | 1.0 | 0.00 | 0.00 | 0.00 | 98 | 1009.3 |
| 20260905114024 | 59 | 129 | 0.0 | 1.0 | 0.00 | 0.00 | 0.00 | 98 | 1009.2 |
| 20260905113024 | 58 | 139 | 0.0 | 1.0 | 0.00 | 0.00 | 0.00 | 98 | 1009.2 |
| 20260905112024 | 58 | 130 | 1.0 | 2.0 | 0.00 | 0.00 | 0.00 | 97 | 1009.2 |
| 20260905111104 | 58 | 162 | 0.0 | 1.0 | 0.00 | 0.00 | 0.00 | 97 | 1009.0 |
| 20260905110044 | 58 | 125 | 0.0 | 2.0 | 0.00 | 0.00 | 0.00 | 97 | 1009.0 |
| 20260905105025 | 58 | 132 | 1.0 | 2.0 | 0.00 | 0.00 | 0.00 | 97 | 1008.9 |
| 20260905104024 | 58 | 113 | 0.0 | 1.0 | 0.00 | 0.00 | 0.00 | 97 | 1008.9 |
| 20260905103025 | 58 | 126 | 0.0 | 1.0 | 0.00 | 0.00 | 0.00 | 97 | 1008.9 |
| 20260905102026 | 57 | 121 | 0.0 | 1.0 | 0.00 | 0.00 | 0.00 | 97 | 1008.9 |
| 20260905101025 | 57 | 133 | 0.0 | 1.0 | 0.00 | 0.00 | 0.00 | 97 | 1008.8 |
| 20260905100025 | 57 | 131 | 1.0 | 2.0 | 0.00 | 0.00 | 0.00 | 97 | 1008.8 |
| 20260905095025 | 57 | 119 | 1.0 | 1.0 | 0.00 | 0.00 | 0.00 | 97 | 1008.7 |
| 20260905094026 | 57 | 118 | 0.0 | 1.0 | 0.00 | 0.00 | 0.00 | 97 | 1008.7 |
| 20260905093026 | 57 | 160 | 0.0 | 1.0 | 0.00 | 0.00 | 0.00 | 97 | 1008.7 |
| 20260905092026 | 57 | 173 | 0.0 | 1.0 | 0.00 | 0.00 | 0.00 | 97 | 1008.6 |
| 20260905091026 | 57 | 211 | 0.0 | 1.0 | 0.00 | 0.00 | 0.00 | 97 | 1008.6 |
| 20260905090106 | 57 | 149 | 0.0 | 1.0 | 0.00 | 0.00 | 0.00 | 97 | 1008.5 |
| 20260905085026 | 57 | 113 | 0.0 | 2.0 | 0.00 | 0.00 | 0.00 | 96 | 1008.5 |
| 20260905084026 | 57 | 187 | 1.0 | 1.0 | 0.00 | 0.00 | 0.00 | 96 | 1008.5 |
| 20260905083026 | 58 | 134 | 0.0 | 1.0 | 0.00 | 0.00 | 0.00 | 96 | 1008.5 |
| 20260905082026 | 58 | 105 | 1.0 | 1.0 | 0.00 | 0.00 | 0.00 | 96 | 1008.5 |
| 20260905081026 | 58 | 110 | 1.0 | 1.0 | 0.00 | 0.00 | 0.00 | 96 | 1008.5 |
| 20260905080026 | 58 | 226 | 0.0 | 1.0 | 0.00 | 0.00 | 0.00 | 96 | 1008.4 |
| 20260905075026 | 58 | 78 | 0.0 | 1.0 | 0.00 | 0.00 | 0.00 | 95 | 1008.4 |
| 20260905074027 | 58 | 163 | 0.0 | 1.0 | 0.00 | 0.00 | 0.00 | 95 | 1008.5 |
| 20260905073027 | 59 | 216 | 0.0 | 1.0 | 0.00 | 0.00 | 0.00 | 95 | 1008.6 |
| 20260905072027 | 59 | 142 | 0.0 | 2.0 | 0.00 | 0.00 | 0.00 | 95 | 1008.7 |
| 20260905071047 | 59 | 117 | 0.0 | 1.0 | 0.00 | 0.00 | 0.00 | 94 | 1008.6 |
| 20260905070107 | 60 | 156 | 0.0 | 1.0 | 0.00 | 0.00 | 0.00 | 94 | 1008.5 |
| 20260905065027 | 60 | 138 | 1.0 | 1.0 | 0.00 | 0.00 | 0.00 | 94 | 1008.6 |
| 20260905064027 | 60 | 124 | 1.0 | 1.0 | 0.00 | 0.00 | 0.00 | 94 | 1008.6 |
| 20260905063027 | 60 | 145 | 0.0 | 1.0 | 0.00 | 0.00 | 0.00 | 94 | 1008.7 |
| 20260905062028 | 60 | 155 | 0.0 | 1.0 | 0.00 | 0.00 | 0.00 | 95 | 1008.9 |
| 20260905061108 | 60 | 175 | 0.0 | 1.0 | 0.00 | 0.00 | 0.00 | 95 | 1009.0 |
| 20260905060028 | 60 | 191 | 0.0 | 1.0 | 0.00 | 0.00 | 0.00 | 96 | 1009.2 |
| 20260905055028 | 60 | 228 | 0.0 | 2.0 | 0.00 | 0.00 | 0.00 | 96 | 1009.2 |
| 20260905054028 | 60 | 196 | 0.0 | 1.0 | 0.00 | 0.00 | 0.00 | 96 | 1009.2 |
| 20260905053049 | 60 | 235 | 0.0 | 2.0 | 0.00 | 0.00 | 0.00 | 96 | 1009.1 |
| 20260905052029 | 60 | 219 | 1.0 | 2.0 | 0.00 | 0.00 | 0.00 | 96 | 1009.1 |
| 20260905051029 | 60 | 203 | 0.0 | 1.0 | 0.00 | 0.00 | 0.00 | 95 | 1009.2 |
| 20260905050029 | 60 | 184 | 0.0 | 1.0 | 0.00 | 0.00 | 0.00 | 95 | 1009.3 |
| 20260905045049 | 60 | 158 | 0.0 | 0.0 | 0.00 | 0.00 | 0.00 | 95 | 1009.2 |
| 20260905044029 | 60 | 184 | 0.0 | 1.0 | 0.00 | 0.00 | 0.00 | 95 | 1009.0 |
| 20260905043018 | 61 | 213 | 0.0 | 2.0 | 0.00 | 0.00 | 0.00 | 94 | 1009.0 |
| 20260905042021 | 61 | 163 | 0.0 | 1.0 | 0.00 | 0.00 | 0.00 | 94 | 1009.2 |
| 20260905041038 | 61 | 124 | 0.0 | 1.0 | 0.00 | 0.00 | 0.00 | 94 | 1009.3 |
| 20260905040018 | 61 | 120 | 1.0 | 2.0 | 0.00 | 0.00 | 0.00 | 94 | 1009.2 |
| 20260905035018 | 62 | 175 | 0.0 | 2.0 | 0.00 | 0.00 | 0.00 | 93 | 1009.2 |
| 20260905034018 | 62 | 132 | 0.0 | 1.0 | 0.00 | 0.00 | 0.00 | 93 | 1009.2 |
| 20260905033018 | 62 | 125 | 1.0 | 2.0 | 0.00 | 0.00 | 0.00 | 94 | 1009.3 |
| 20260905032019 | 62 | 122 | 0.0 | 1.0 | 0.00 | 0.00 | 0.00 | 94 | 1009.4 |
| 20260905031019 | 62 | 153 | 0.0 | 1.0 | 0.00 | 0.00 | 0.00 | 93 | 1009.3 |
| 20260905030019 | 62 | 175 | 0.0 | 1.0 | 0.00 | 0.00 | 0.00 | 93 | 1009.3 |
| 20260905025019 | 62 | 163 | 0.0 | 2.0 | 0.00 | 0.00 | 0.00 | 93 | 1009.3 |
| 20260905024039 | 63 | 116 | 0.0 | 1.0 | 0.00 | 0.00 | 0.00 | 92 | 1009.4 |
| 20260905023016 | 63 | 113 | 0.0 | 1.0 | 0.00 | 0.00 | 0.00 | 92 | 1009.5 |
| 20260905022019 | 63 | 128 | 0.0 | 2.0 | 0.00 | 0.00 | 0.00 | 91 | 1009.6 |
| 20260905021019 | 64 | 156 | 0.0 | 1.0 | 0.00 | 0.00 | 0.00 | 91 | 1009.6 |
| 20260905020019 | 64 | 123 | 0.0 | 1.0 | 0.00 | 0.00 | 0.00 | 90 | 1009.7 |
| 20260905015037 | 64 | 222 | 0.0 | 1.0 | 0.00 | 0.00 | 0.00 | 89 | 1009.8 |
| 20260905014017 | 65 | 115 | 0.0 | 1.0 | 0.00 | 0.00 | 0.00 | 88 | 1009.8 |
| 20260905013020 | 65 | 110 | 0.0 | 1.0 | 0.00 | 0.00 | 0.00 | 88 | 1009.8 |
| 20260905012020 | 66 | 214 | 0.0 | 1.0 | 0.00 | 0.00 | 0.00 | 87 | 1009.7 |
| 20260905011020 | 66 | 127 | 0.0 | 1.0 | 0.00 | 0.00 | 0.00 | 87 | 1009.8 |
| 20260905010018 | 66 | 108 | 0.0 | 1.0 | 0.00 | 0.00 | 0.00 | 86 | 1009.8 |
| 20260905005017 | 67 | 141 | 0.0 | 2.0 | 0.00 | 0.00 | 0.00 | 85 | 1009.6 |
| 20260905004018 | 67 | 157 | 0.0 | 1.0 | 0.00 | 0.00 | 0.00 | 84 | 1009.6 |
| 20260905003018 | 67 | 141 | 0.0 | 1.0 | 0.00 | 0.00 | 0.00 | 83 | 1009.6 |
| 20260905002018 | 68 | 126 | 0.0 | 2.0 | 0.00 | 0.00 | 0.00 | 83 | 1009.5 |
| 20260905001018 | 68 | 122 | 0.0 | 1.0 | 0.00 | 0.00 | 0.00 | 84 | 1009.4 |
| 20260905000038 | 69 | 98 | 0.0 | 1.0 | 0.00 | 0.00 | 0.00 | 82 | 1009.3 |
| 20260904235018 | 69 | 153 | 0.0 | 1.0 | 0.00 | 0.00 | 0.00 | 82 | 1009.2 |
| 20260904234019 | 70 | 161 | 0.0 | 1.0 | 0.00 | 0.00 | 0.00 | 81 | 1009.2 |
| 20260904233019 | 71 | 191 | 0.0 | 2.0 | 0.00 | 0.00 | 0.00 | 80 | 1009.0 |
| 20260904232038 | 72 | 183 | 0.0 | 2.0 | 0.00 | 0.00 | 0.00 | 79 | 1008.9 |
| 20260904231101 | 73 | 143 | 1.0 | 3.0 | 0.00 | 0.00 | 0.00 | 75 | 1008.9 |
| 20260904230019 | 74 | 204 | 0.0 | 3.0 | 0.00 | 0.00 | 0.00 | 71 | 1009.0 |
| 20260904225019 | 75 | 152 | 0.0 | 1.0 | 0.00 | 0.00 | 0.00 | 68 | 1008.9 |
| 20260904224016 | 76 | 0.0 | 0.0 | 0.00 | 0.00 | 0.00 | 66 | 1008.8 | |
| 20260904223019 | 78 | 141 | 0.0 | 1.0 | 0.00 | 0.00 | 0.00 | 62 | 1008.8 |
| 20260904222019 | 79 | 267 | 0.0 | 2.0 | 0.00 | 0.00 | 0.00 | 61 | 1008.8 |
| 20260904221019 | 79 | 328 | 0.0 | 2.0 | 0.00 | 0.00 | 0.00 | 58 | 1008.7 |
| 20260904220020 | 79 | 348 | 1.0 | 2.0 | 0.00 | 0.00 | 0.00 | 58 | 1008.7 |
| 20260904215017 | 80 | 338 | 1.0 | 3.0 | 0.00 | 0.00 | 0.00 | 56 | 1008.7 |
| 20260904214020 | 80 | 339 | 1.0 | 3.0 | 0.00 | 0.00 | 0.00 | 54 | 1008.6 |
| 20260904213020 | 80 | 237 | 1.0 | 3.0 | 0.00 | 0.00 | 0.00 | 54 | 1008.7 |
| 20260904212018 | 80 | 303 | 1.0 | 4.0 | 0.00 | 0.00 | 0.00 | 55 | 1008.7 |
| 20260904211017 | 80 | 281 | 1.0 | 3.0 | 0.00 | 0.00 | 0.00 | 54 | 1008.7 |
| 20260904210018 | 81 | 325 | 1.0 | 3.0 | 0.00 | 0.00 | 0.00 | 52 | 1008.6 |
| 20260904205038 | 81 | 307 | 1.0 | 2.0 | 0.00 | 0.00 | 0.00 | 52 | 1008.6 |
| 20260904204020 | 81 | 308 | 1.0 | 3.0 | 0.00 | 0.00 | 0.00 | 52 | 1008.5 |
| 20260904203018 | 81 | 326 | 1.0 | 4.0 | 0.00 | 0.00 | 0.00 | 54 | 1008.7 |
| 20260904202018 | 81 | 204 | 1.0 | 5.0 | 0.00 | 0.00 | 0.00 | 54 | 1008.7 |
| 20260904201018 | 83 | 324 | 1.0 | 2.0 | 0.00 | 0.00 | 0.00 | 50 | 1008.6 |
| 20260904200018 | 83 | 325 | 1.0 | 3.0 | 0.00 | 0.00 | 0.00 | 50 | 1008.7 |
| 20260904195020 | 83 | 313 | 1.0 | 3.0 | 0.00 | 0.00 | 0.00 | 50 | 1008.5 |
| 20260904194019 | 83 | 326 | 2.0 | 4.0 | 0.00 | 0.00 | 0.00 | 52 | 1008.4 |
| 20260904193038 | 82 | 331 | 1.0 | 3.0 | 0.00 | 0.00 | 0.00 | 53 | 1008.5 |
| 20260904192039 | 84 | 332 | 1.0 | 4.0 | 0.00 | 0.00 | 0.00 | 51 | 1008.4 |
| 20260904191039 | 84 | 327 | 2.0 | 3.0 | 0.00 | 0.00 | 0.00 | 52 | 1008.5 |
| 20260904190039 | 83 | 257 | 1.0 | 5.0 | 0.00 | 0.00 | 0.00 | 51 | 1008.6 |
| 20260904185016 | 84 | 273 | 2.0 | 4.0 | 0.00 | 0.00 | 0.00 | 51 | 1008.8 |
| 20260904184019 | 83 | 279 | 1.0 | 5.0 | 0.00 | 0.00 | 0.00 | 55 | 1008.8 |
| 20260904183020 | 83 | 335 | 2.0 | 4.0 | 0.00 | 0.00 | 0.00 | 55 | 1008.8 |
| 20260904182019 | 83 | 293 | 2.0 | 6.0 | 0.00 | 0.00 | 0.00 | 53 | 1008.7 |
| 20260904181019 | 82 | 337 | 1.0 | 3.0 | 0.00 | 0.00 | 0.00 | 54 | 1008.8 |
| 20260904180017 | 83 | 340 | 2.0 | 5.0 | 0.00 | 0.00 | 0.00 | 54 | 1008.8 |
| 20260904175017 | 83 | 219 | 1.0 | 3.0 | 0.00 | 0.00 | 0.00 | 56 | 1008.9 |
| 20260904174020 | 83 | 257 | 1.0 | 3.0 | 0.00 | 0.00 | 0.00 | 53 | 1008.8 |
| 20260904173020 | 82 | 257 | 2.0 | 4.0 | 0.00 | 0.00 | 0.00 | 56 | 1008.8 |
| 20260904172037 | 84 | 348 | 1.0 | 4.0 | 0.00 | 0.00 | 0.00 | 56 | 1008.9 |
| 20260904171017 | 83 | 299 | 2.0 | 4.0 | 0.00 | 0.00 | 0.00 | 58 | 1009.2 |
| 20260904170017 | 82 | 324 | 1.0 | 5.0 | 0.00 | 0.00 | 0.00 | 59 | 1009.4 |
| 20260904165038 | 82 | 343 | 1.0 | 4.0 | 0.00 | 0.00 | 0.00 | 60 | 1009.3 |
| 20260904164018 | 82 | 19 | 1.0 | 3.0 | 0.00 | 0.00 | 0.00 | 60 | 1009.3 |
| 20260904163018 | 82 | 331 | 2.0 | 3.0 | 0.00 | 0.00 | 0.00 | 60 | 1009.4 |
| 20260904162018 | 81 | 29 | 1.0 | 4.0 | 0.00 | 0.00 | 0.00 | 60 | 1009.5 |
| 20260904161018 | 80 | 1 | 1.0 | 2.0 | 0.00 | 0.00 | 0.00 | 63 | 1009.5 |
| 20260904160019 | 80 | 337 | 1.0 | 3.0 | 0.00 | 0.00 | 0.00 | 66 | 1009.7 |
| 20260904155019 | 81 | 1 | 1.0 | 3.0 | 0.00 | 0.00 | 0.00 | 64 | 1009.8 |
| 20260904154018 | 81 | 2 | 1.0 | 3.0 | 0.00 | 0.00 | 0.00 | 63 | 1009.8 |
| 20260904153018 | 80 | 80 | 1.0 | 4.0 | 0.00 | 0.00 | 0.00 | 66 | 1009.9 |
| 20260904152019 | 79 | 320 | 1.0 | 3.0 | 0.00 | 0.00 | 0.00 | 68 | 1010.0 |
| 20260904151039 | 78 | 271 | 2.0 | 4.0 | 0.00 | 0.00 | 0.00 | 69 | 1010.0 |
| 20260904150019 | 78 | 263 | 1.0 | 3.0 | 0.00 | 0.00 | 0.00 | 70 | 1010.0 |
| 20260904145020 | 77 | 332 | 1.0 | 5.0 | 0.00 | 0.00 | 0.00 | 71 | 1010.1 |
| 20260904144019 | 77 | 339 | 1.0 | 2.0 | 0.00 | 0.00 | 0.00 | 72 | 1010.1 |
| 20260904143019 | 76 | 348 | 1.0 | 3.0 | 0.00 | 0.00 | 0.00 | 74 | 1010.3 |
| 20260904142019 | 75 | 43 | 1.0 | 3.0 | 0.00 | 0.00 | 0.00 | 76 | 1010.2 |